TimeCDT,TemperatureF,Dew PointF,Humidity,Sea Level PressureIn,VisibilityMPH,Wind Direction,Wind SpeedMPH,Gust SpeedMPH,PrecipitationIn,Events,Conditions,WindDirDegrees,DateUTC
12:15 AM,57.6,31.1,37,29.99,10.0,NNE,12.7,-,N/A,,Clear,30,2014-03-22 05:15:00
12:35 AM,56.8,31.1,38,30.00,10.0,NNE,11.5,-,N/A,,Clear,30,2014-03-22 05:35:00
12:55 AM,56.5,31.1,38,30.00,10.0,NNE,10.4,-,N/A,,Clear,30,2014-03-22 05:55:00
1:15 AM,55.8,30.7,39,30.00,10.0,NE,9.2,-,N/A,,Clear,40,2014-03-22 06:15:00
1:35 AM,54.7,30.9,40,29.99,10.0,NE,8.1,-,N/A,,Clear,40,2014-03-22 06:35:00
1:55 AM,54.0,30.7,41,29.99,10.0,ENE,9.2,-,N/A,,Clear,60,2014-03-22 06:55:00
2:15 AM,55.4,28.4,36,29.99,10.0,NE,16.1,-,N/A,,Clear,50,2014-03-22 07:15:00
2:35 AM,56.8,26.8,32,30.00,10.0,NE,13.8,-,N/A,,Clear,50,2014-03-22 07:35:00
2:55 AM,56.7,26.6,32,30.00,10.0,NE,13.8,-,N/A,,Scattered Clouds,40,2014-03-22 07:55:00
3:15 AM,56.7,26.6,32,30.01,10.0,NE,12.7,-,N/A,,Mostly Cloudy,40,2014-03-22 08:15:00
3:35 AM,56.7,26.1,31,30.01,10.0,NNE,12.7,19.6,N/A,,Mostly Cloudy,30,2014-03-22 08:35:00
3:55 AM,56.5,25.7,31,30.01,10.0,NE,16.1,-,N/A,,Overcast,40,2014-03-22 08:55:00
4:15 AM,56.8,25.3,30,30.02,10.0,NE,17.3,23.0,N/A,,Overcast,40,2014-03-22 09:15:00
4:35 AM,57.6,24.8,28,30.03,10.0,NE,18.4,23.0,N/A,,Overcast,40,2014-03-22 09:35:00
4:55 AM,57.7,24.4,28,30.03,10.0,NNE,18.4,23.0,N/A,,Overcast,30,2014-03-22 09:55:00
5:15 AM,57.6,23.9,27,30.04,10.0,NE,15.0,-,N/A,,Overcast,40,2014-03-22 10:15:00
5:35 AM,57.2,24.4,28,30.05,10.0,NNE,13.8,24.2,N/A,,Overcast,20,2014-03-22 10:35:00
5:55 AM,55.2,25.2,31,30.05,10.0,NNE,16.1,-,N/A,,Overcast,20,2014-03-22 10:55:00
6:15 AM,53.1,25.3,34,30.05,10.0,NNE,15.0,-,N/A,,Overcast,20,2014-03-22 11:15:00
6:35 AM,51.6,25.5,36,30.06,10.0,NNE,17.3,23.0,N/A,,Mostly Cloudy,20,2014-03-22 11:35:00
6:55 AM,50.9,26.1,38,30.07,10.0,NNE,16.1,23.0,N/A,,Mostly Cloudy,20,2014-03-22 11:55:00
7:15 AM,50.4,26.4,39,30.08,10.0,NNE,13.8,19.6,N/A,,Mostly Cloudy,30,2014-03-22 12:15:00
7:35 AM,50.4,27.0,40,30.11,10.0,NNE,15.0,20.7,N/A,,Overcast,20,2014-03-22 12:35:00
7:55 AM,50.2,27.3,41,30.11,10.0,NNE,15.0,21.9,N/A,,Overcast,20,2014-03-22 12:55:00
8:15 AM,50.0,28.0,43,30.12,10.0,NNE,16.1,-,N/A,,Overcast,30,2014-03-22 13:15:00
8:35 AM,50.0,28.6,44,30.13,10.0,NNE,12.7,18.4,N/A,,Overcast,30,2014-03-22 13:35:00
8:55 AM,50.0,28.8,44,30.13,10.0,NNE,15.0,21.9,N/A,,Overcast,30,2014-03-22 13:55:00
9:15 AM,50.0,29.1,45,30.14,10.0,NNE,13.8,-,N/A,,Overcast,30,2014-03-22 14:15:00
9:35 AM,49.8,29.5,46,30.15,10.0,NNE,15.0,20.7,N/A,,Overcast,20,2014-03-22 14:35:00
9:55 AM,49.3,29.8,47,30.16,10.0,NNE,16.1,20.7,N/A,,Overcast,20,2014-03-22 14:55:00
10:15 AM,49.3,30.0,48,30.17,10.0,NNE,12.7,-,N/A,,Overcast,20,2014-03-22 15:15:00
10:35 AM,49.6,30.6,48,30.18,10.0,NNE,12.7,-,N/A,,Overcast,20,2014-03-22 15:35:00
10:55 AM,49.3,30.7,49,30.18,10.0,North,17.3,-,N/A,,Overcast,10,2014-03-22 15:55:00
11:15 AM,49.3,31.3,50,30.18,10.0,NNE,15.0,20.7,N/A,,Overcast,20,2014-03-22 16:15:00
11:35 AM,49.8,31.6,50,30.17,10.0,NNE,13.8,23.0,N/A,,Overcast,20,2014-03-22 16:35:00
11:55 AM,50.0,31.8,50,30.17,10.0,NNE,13.8,-,N/A,,Overcast,20,2014-03-22 16:55:00
12:15 PM,50.2,31.8,49,30.16,10.0,NNE,17.3,21.9,N/A,,Overcast,20,2014-03-22 17:15:00
12:55 PM,50.4,31.6,49,30.15,10.0,NNE,16.1,21.9,N/A,,Overcast,20,2014-03-22 17:55:00
1:15 PM,51.3,31.8,47,30.14,10.0,NNE,12.7,20.7,N/A,,Overcast,20,2014-03-22 18:15:00
1:35 PM,52.0,31.8,46,30.14,10.0,NNE,12.7,18.4,N/A,,Overcast,20,2014-03-22 18:35:00
1:55 PM,52.3,32.0,46,30.13,10.0,NNE,10.4,-,N/A,,Overcast,30,2014-03-22 18:55:00
2:15 PM,52.7,31.8,45,30.13,10.0,North,10.4,18.4,N/A,,Overcast,10,2014-03-22 19:15:00
2:35 PM,53.1,31.8,44,30.12,10.0,NNE,8.1,19.6,N/A,,Overcast,20,2014-03-22 19:35:00
2:55 PM,53.2,31.8,44,30.11,10.0,NNE,11.5,16.1,N/A,,Overcast,20,2014-03-22 19:55:00
3:15 PM,53.6,32.0,44,30.11,10.0,NNE,11.5,18.4,N/A,,Overcast,20,2014-03-22 20:15:00
3:35 PM,53.8,31.8,43,30.10,10.0,North,13.8,-,N/A,,Overcast,10,2014-03-22 20:35:00
3:55 PM,54.3,31.6,42,30.09,10.0,NNE,9.2,-,N/A,,Overcast,30,2014-03-22 20:55:00
4:15 PM,54.9,31.5,41,30.09,10.0,North,9.2,-,N/A,,Overcast,10,2014-03-22 21:15:00
4:35 PM,55.6,31.6,40,30.08,10.0,North,9.2,12.7,N/A,,Overcast,10,2014-03-22 21:35:00
4:55 PM,55.6,31.3,40,30.08,10.0,NNE,9.2,17.3,N/A,,Overcast,30,2014-03-22 21:55:00
5:15 PM,55.9,30.7,38,30.08,10.0,NE,10.4,-,N/A,,Overcast,40,2014-03-22 22:15:00
5:35 PM,56.3,30.4,37,30.07,10.0,NE,12.7,-,N/A,,Overcast,40,2014-03-22 22:35:00
5:55 PM,56.3,30.0,37,30.07,10.0,NNE,11.5,-,N/A,,Overcast,30,2014-03-22 22:55:00
6:15 PM,55.9,29.5,36,30.07,10.0,NE,9.2,17.3,N/A,,Overcast,40,2014-03-22 23:15:00
6:35 PM,55.8,28.8,36,30.08,10.0,ENE,12.7,-,N/A,,Overcast,60,2014-03-22 23:35:00
6:55 PM,55.4,28.8,36,30.09,10.0,ENE,11.5,-,N/A,,Overcast,70,2014-03-22 23:55:00
7:15 PM,55.2,28.4,36,30.09,10.0,ENE,11.5,-,N/A,,Overcast,60,2014-03-23 00:15:00
7:35 PM,54.7,28.8,37,30.10,10.0,ENE,12.7,-,N/A,,Overcast,70,2014-03-23 00:35:00
7:55 PM,-9999,-9999,N/A,30.11,10.0,ENE,10.4,-,N/A,,Unknown,70,2014-03-23 00:55:00
8:15 PM,54.1,28.0,37,30.11,10.0,ENE,8.1,-,N/A,,Overcast,60,2014-03-23 01:15:00
8:35 PM,54.0,27.7,36,30.13,10.0,NE,8.1,-,N/A,,Overcast,50,2014-03-23 01:35:00
8:55 PM,53.8,27.3,36,30.14,10.0,NE,8.1,-,N/A,,Overcast,50,2014-03-23 01:55:00
9:15 PM,53.4,27.3,37,30.16,10.0,NE,6.9,-,N/A,,Overcast,50,2014-03-23 02:15:00
9:35 PM,53.6,26.8,36,30.17,10.0,NE,8.1,-,N/A,,Overcast,50,2014-03-23 02:35:00
9:55 PM,53.6,26.1,35,30.18,10.0,NE,8.1,-,N/A,,Overcast,50,2014-03-23 02:55:00
10:15 PM,53.2,25.9,35,30.19,10.0,NE,6.9,-,N/A,,Overcast,50,2014-03-23 03:15:00
10:35 PM,52.9,26.1,35,30.20,10.0,NNE,4.6,-,N/A,,Overcast,20,2014-03-23 03:35:00
10:55 PM,52.2,27.9,39,30.22,10.0,North,5.8,-,N/A,,Overcast,350,2014-03-23 03:55:00
11:15 PM,51.4,28.9,42,30.22,10.0,North,8.1,-,N/A,,Overcast,10,2014-03-23 04:15:00
11:35 PM,51.6,28.2,41,30.22,10.0,NNE,9.2,-,N/A,,Overcast,20,2014-03-23 04:35:00
11:55 PM,52.2,26.2,37,30.23,10.0,NNE,10.4,-,N/A,,Overcast,30,2014-03-23 04:55:00